| time (UTC) | temp F | wind direction | speed MPH | gust MPH | rain 1hr in | rain 24hr in | rain mn in | humidity % | barometer mb |
| 20260505023021 | 66 | 360 | 9.0 | 18.0 | 0.00 | 0.00 | 0.00 | 38 | 996.4 |
| 20260505021521 | 66 | 360 | 8.0 | 15.0 | 0.00 | 0.00 | 0.00 | 38 | 996.4 |
| 20260505020020 | 66 | 360 | 9.0 | 17.0 | 0.00 | 0.00 | 0.00 | 38 | 996.3 |
| 20260505014524 | 67 | 360 | 11.0 | 21.0 | 0.00 | 0.00 | 0.00 | 37 | 996.1 |
| 20260505013050 | 70 | 360 | 10.0 | 17.0 | 0.00 | 0.00 | 0.00 | 33 | 995.9 |
| 20260505011556 | 72 | 360 | 9.0 | 13.0 | 0.00 | 0.00 | 0.00 | 30 | 995.9 |
| 20260505010045 | 75 | 280 | 2.0 | 10.0 | 0.00 | 0.00 | 0.00 | 22 | 996.0 |
| 20260505004544 | 74 | 323 | 3.0 | 7.0 | 0.00 | 0.00 | 0.00 | 22 | 996.0 |
| 20260505003042 | 74 | 321 | 4.0 | 10.0 | 0.00 | 0.00 | 0.00 | 22 | 996.2 |
| 20260505001542 | 74 | 286 | 3.0 | 8.0 | 0.00 | 0.00 | 0.00 | 23 | 996.2 |
| 20260505000050 | 74 | 294 | 5.0 | 10.0 | 0.00 | 0.00 | 0.00 | 22 | 996.2 |
| 20260504234546 | 75 | 281 | 5.0 | 12.0 | 0.00 | 0.00 | 0.00 | 23 | 996.3 |
| 20260504233054 | 74 | 267 | 4.0 | 10.0 | 0.00 | 0.00 | 0.00 | 23 | 996.5 |
| 20260504231537 | 74 | 290 | 3.0 | 9.0 | 0.00 | 0.00 | 0.00 | 23 | 996.4 |
| 20260504230036 | 74 | 360 | 9.0 | 14.0 | 0.00 | 0.00 | 0.00 | 23 | 996.5 |
| 20260504224531 | 74 | 286 | 7.0 | 14.0 | 0.00 | 0.00 | 0.00 | 22 | 996.8 |
| 20260504223042 | 74 | 360 | 5.0 | 11.0 | 0.00 | 0.00 | 0.00 | 20 | 996.8 |
| 20260504221527 | 73 | 313 | 4.0 | 12.0 | 0.00 | 0.00 | 0.00 | 22 | 997.0 |
| 20260504220021 | 73 | 277 | 7.0 | 12.0 | 0.00 | 0.00 | 0.00 | 21 | 997.4 |
| 20260504214522 | 73 | 360 | 5.0 | 14.0 | 0.00 | 0.00 | 0.00 | 23 | 997.7 |
| 20260504213027 | 72 | 274 | 9.0 | 14.0 | 0.00 | 0.00 | 0.00 | 26 | 998.0 |
| 20260504211520 | 73 | 244 | 9.0 | 15.0 | 0.00 | 0.00 | 0.00 | 27 | 998.0 |
| 20260504210012 | 72 | 286 | 4.0 | 14.0 | 0.00 | 0.00 | 0.00 | 29 | 998.2 |
| 20260504204528 | 72 | 269 | 6.0 | 14.0 | 0.00 | 0.00 | 0.00 | 27 | 998.4 |
| 20260504203007 | 72 | 360 | 8.0 | 17.0 | 0.00 | 0.00 | 0.00 | 28 | 998.5 |
| 20260504201505 | 71 | 288 | 7.0 | 14.0 | 0.00 | 0.00 | 0.00 | 30 | 998.7 |
| 20260504200002 | 70 | 360 | 10.0 | 16.0 | 0.00 | 0.00 | 0.00 | 31 | 998.8 |
| 20260504194603 | 70 | 360 | 8.0 | 15.0 | 0.00 | 0.00 | 0.00 | 32 | 999.0 |
| 20260504193058 | 70 | 360 | 7.0 | 15.0 | 0.00 | 0.00 | 0.00 | 33 | 999.1 |
| 20260504191559 | 69 | 223 | 7.0 | 13.0 | 0.00 | 0.00 | 0.00 | 34 | 999.4 |
| 20260504190053 | 68 | 276 | 9.0 | 15.0 | 0.00 | 0.00 | 0.00 | 36 | 999.6 |
| 20260504184549 | 68 | 277 | 6.0 | 13.0 | 0.00 | 0.00 | 0.00 | 36 | 999.8 |
| 20260504183046 | 67 | 360 | 6.0 | 13.0 | 0.00 | 0.00 | 0.00 | 38 | 999.9 |
| 20260504181546 | 66 | 360 | 6.0 | 13.0 | 0.00 | 0.00 | 0.00 | 39 | 1000.1 |
| 20260504180039 | 65 | 360 | 7.0 | 15.0 | 0.00 | 0.00 | 0.00 | 41 | 1000.4 |
| 20260504174535 | 64 | 360 | 8.0 | 13.0 | 0.00 | 0.00 | 0.00 | 41 | 1000.5 |
| 20260504173031 | 63 | 301 | 7.0 | 13.0 | 0.00 | 0.00 | 0.00 | 42 | 1000.5 |
| 20260504171529 | 62 | 360 | 11.0 | 16.0 | 0.00 | 0.00 | 0.00 | 42 | 1000.6 |
| 20260504150113 | 54 | 93 | 0.0 | 1.0 | 0.00 | 0.00 | 0.00 | 47 | 1001.2 |
| 20260504081508 | 53 | 132 | 1.0 | 11.0 | 0.00 | 0.00 | 0.00 | 46 | 1000.2 |
| 20260504044604 | 60 | 360 | 7.0 | 11.0 | 0.00 | 0.00 | 0.00 | 36 | 1000.6 |
| 20260504043057 | 61 | 111 | 7.0 | 12.0 | 0.00 | 0.00 | 0.00 | 35 | 1000.6 |
| 20260504041554 | 62 | 113 | 6.0 | 11.0 | 0.00 | 0.00 | 0.00 | 34 | 1000.5 |
| 20260504040104 | 63 | 360 | 8.0 | 12.0 | 0.00 | 0.00 | 0.00 | 33 | 1000.4 |
| 20260504034611 | 64 | 111 | 6.0 | 10.0 | 0.00 | 0.00 | 0.00 | 31 | 1000.5 |
| 20260504033048 | 65 | 108 | 2.0 | 8.0 | 0.00 | 0.00 | 0.00 | 30 | 1000.5 |
| 20260504031548 | 66 | 117 | 3.0 | 7.0 | 0.00 | 0.00 | 0.00 | 28 | 1000.4 |
| 20260504030108 | 67 | 120 | 1.0 | 6.0 | 0.00 | 0.00 | 0.00 | 27 | 1000.2 |
| 20260504024554 | 68 | 121 | 2.0 | 7.0 | 0.00 | 0.00 | 0.00 | 27 | 1000.2 |